CH4SAO CYVR-CYVR

Flight info

Callsign CH4SAO
Flight time 0h 6m
Altitude 2500
Route
Aircraft C172

Departure

Time 2026-05-08 02:46
Airport Vancouver International Airport (CYVR)

Arrival

Time 2026-05-08 02:52
Airport Vancouver International Airport (CYVR)
Time Latitude Longitude Altitude Speed Heading
2026-05-08 02:42 49.18102 -123.15852 18 ft 0 kts 190°
2026-05-08 02:43 49.18101 -123.15873 18 ft 9 kts 320°
2026-05-08 02:43 49.18155 -123.15880 18 ft 6 kts 353°
2026-05-08 02:43 49.18177 -123.15922 18 ft 8 kts 279°
2026-05-08 02:44 49.18193 -123.16067 18 ft 17 kts 280°
2026-05-08 02:44 49.18211 -123.16229 18 ft 14 kts 281°
2026-05-08 02:44 49.18270 -123.16269 18 ft 5 kts
2026-05-08 02:44 49.18308 -123.16265 18 ft 18 kts
2026-05-08 02:45 49.18467 -123.16255 18 ft 20 kts 329°
2026-05-08 02:45 49.18510 -123.16439 18 ft 22 kts 278°
2026-05-08 02:45 49.18555 -123.16809 16 ft 55 kts 279°
2026-05-08 02:45 49.18651 -123.17576 123 ft 78 kts 280°
2026-05-08 02:46 49.18748 -123.18353 381 ft 76 kts 276°
2026-05-08 02:46 49.18820 -123.19196 585 ft 80 kts 276°
2026-05-08 02:46 49.18761 -123.20000 812 ft 76 kts 219°
2026-05-08 02:46 49.18228 -123.20005 919 ft 87 kts 176°
2026-05-08 02:47 49.17599 -123.19911 1015 ft 94 kts 179°
2026-05-08 02:47 49.16920 -123.19844 1020 ft 101 kts 168°
2026-05-08 02:47 49.16463 -123.19047 1006 ft 113 kts 98°
2026-05-08 02:47 49.16521 -123.17821 984 ft 116 kts 91°
2026-05-08 02:48 49.16491 -123.16625 1045 ft 111 kts 101°
2026-05-08 02:48 49.16451 -123.15432 1064 ft 112 kts 96°
2026-05-08 02:48 49.16407 -123.14253 1102 ft 111 kts 98°
2026-05-08 02:48 49.16374 -123.13079 1126 ft 113 kts 99°
2026-05-08 02:49 49.16329 -123.11883 1120 ft 112 kts 97°
2026-05-08 02:49 49.16536 -123.10750 1146 ft 114 kts 46°
2026-05-08 02:49 49.17313 -123.10524 1101 ft 118 kts
2026-05-08 02:49 49.18133 -123.10424 1101 ft 118 kts
2026-05-08 02:50 49.18942 -123.10273 1120 ft 117 kts
2026-05-08 02:50 49.19750 -123.10225 1126 ft 117 kts 356°
2026-05-08 02:50 49.20460 -123.10706 1033 ft 113 kts 299°
2026-05-08 02:50 49.20345 -123.11821 729 ft 116 kts 239°
2026-05-08 02:51 49.20020 -123.12826 548 ft 93 kts 248°
2026-05-08 02:51 49.19884 -123.13710 328 ft 86 kts 265°
2026-05-08 02:51 49.19897 -123.14531 194 ft 71 kts 271°
2026-05-08 02:51 49.19970 -123.15271 154 ft 71 kts 274°
2026-05-08 02:52 49.20053 -123.16042 62 ft 75 kts 275°
2026-05-08 02:52 49.20141 -123.16793 19 ft 66 kts 275°
2026-05-08 02:52 49.20217 -123.17407 16 ft 43 kts 281°
2026-05-08 02:52 49.20234 -123.17568 16 ft 0 kts 277°
2026-05-08 02:53 49.20235 -123.17577 16 ft 10 kts 277°
2026-05-08 02:53 49.20274 -123.17980 16 ft 64 kts 278°
2026-05-08 02:53 49.20368 -123.18709 221 ft 68 kts 279°
2026-05-08 02:53 49.20470 -123.19489 394 ft 76 kts 290°
2026-05-08 02:54 49.20896 -123.19868 578 ft 88 kts 24°
2026-05-08 02:54 49.21529 -123.19735 726 ft 99 kts
2026-05-08 02:54 49.22207 -123.19662 988 ft 99 kts 18°
2026-05-08 02:54 49.22614 -123.18974 1108 ft 90 kts 101°
2026-05-08 02:55 49.22503 -123.17967 1076 ft 105 kts 102°
2026-05-08 02:55 49.22324 -123.15637 1006 ft 112 kts 98°
2026-05-08 02:55 49.22255 -123.14457 1013 ft 111 kts 98°
2026-05-08 02:56 49.22193 -123.13329 980 ft 103 kts 100°
2026-05-08 02:56 49.22138 -123.12237 931 ft 101 kts 98°
2026-05-08 02:56 49.22074 -123.11203 892 ft 96 kts 102°
2026-05-08 02:56 49.22028 -123.10191 857 ft 94 kts 96°
2026-05-08 02:57 49.21985 -123.09222 905 ft 92 kts 97°
2026-05-08 02:57 49.21958 -123.08233 885 ft 95 kts 97°
2026-05-08 02:57 49.21569 -123.07543 832 ft 90 kts 173°
2026-05-08 02:57 49.20934 -123.07551 805 ft 93 kts 183°
2026-05-08 02:58 49.20281 -123.07590 789 ft 96 kts 182°
2026-05-08 02:58 49.19595 -123.07618 734 ft 100 kts 185°
2026-05-08 02:58 49.19029 -123.08108 760 ft 95 kts 249°
2026-05-08 02:58 49.19138 -123.09142 734 ft 106 kts 285°
2026-05-08 02:59 49.19340 -123.10270 660 ft 113 kts 282°
2026-05-08 02:59 49.19535 -123.11453 564 ft 111 kts 279°
2026-05-08 02:59 49.19653 -123.12512 430 ft 94 kts 278°
2026-05-08 02:59 49.19764 -123.13478 334 ft 92 kts 278°
2026-05-08 03:00 49.19867 -123.14419 243 ft 87 kts 276°
2026-05-08 03:00 49.19969 -123.15270 186 ft 71 kts 275°
2026-05-08 03:00 49.20045 -123.16011 71 ft 75 kts 276°
2026-05-08 03:00 49.20134 -123.16733 19 ft 57 kts 277°
2026-05-08 03:01 49.20177 -123.17167 18 ft 28 kts 283°
2026-05-08 03:01 49.20190 -123.17269 18 ft 0 kts 279°
2026-05-08 03:01 49.20220 -123.17507 16 ft 51 kts 281°
2026-05-08 03:01 49.20311 -123.18207 99 ft 76 kts 277°
2026-05-08 03:02 49.20403 -123.18999 350 ft 76 kts 276°
2026-05-08 03:02 49.20498 -123.19793 572 ft 79 kts 278°
2026-05-08 03:02 49.20757 -123.20510 820 ft 84 kts 332°
2026-05-08 03:02 49.21359 -123.20455 993 ft 95 kts 13°
2026-05-08 03:03 49.22042 -123.20185 1118 ft 110 kts
2026-05-08 03:03 49.22795 -123.19783 1227 ft 117 kts 46°
2026-05-08 03:03 49.23036 -123.18596 1166 ft 122 kts 96°
2026-05-08 03:03 49.22964 -123.17316 1078 ft 122 kts 97°
2026-05-08 03:04 49.22906 -123.16091 1097 ft 111 kts 97°
2026-05-08 03:04 49.22887 -123.14906 1024 ft 110 kts 95°
2026-05-08 03:04 49.22888 -123.13727 942 ft 110 kts 94°